Hourly Data Report for October 02, 2017

All times are specified in Local Standard Time (LST). Add 1 hour to adjust for Daylight Saving Time where and when it is observed.

SAULT STE MARIE A
ONTARIO

46°29'06.000" N
84°30'35.000" W
192.00 m
6057591
71260
YAM

Download Data

Hourly Data (October 2017)
Hourly Data Report for October 2, 2017
Temp Definition
°C
Dew Point Temp Definition
°C
Rel Hum Definition
%
Wind Dir Definition
10's deg

Wind Spd Definition
km/h
Visibility Definition
km
Stn Press Definition
kPa
Hmdx Definition


Wind Chill Definition


Weather Definition


TIME
00:00 Legend Double Dagger 10.6 9.4 92 9 11 24.1 100.08     LegendNANA
01:00 Legend Double Dagger 11.8 9.9 88 11 9 24.1 100.10     Cloudy
02:00 Legend Double Dagger 12.3 10.4 88 12 8 24.1 100.12     LegendNANA
03:00 Legend Double Dagger 12.4 10.7 89 10 8 24.1 100.11     LegendNANA
04:00 Legend Double Dagger 12.7 10.8 89 10 10 24.1 100.07     Cloudy
05:00 Legend Double Dagger 11.9 10.5 91 8 12 24.1 100.11     LegendNANA
06:00 Legend Double Dagger 11.3 9.8 90 8 12 24.1 100.11     LegendNANA
07:00 Legend Double Dagger 12.0 9.6 85 10 10 24.1 100.09     Mostly Cloudy
08:00 Legend Double Dagger 13.2 9.6 79 13 13 24.1 100.13     LegendNANA
09:00 Legend Double Dagger 14.6 9.5 71 13 13 24.1 100.16     LegendNANA
10:00 Legend Double Dagger 15.9 10.0 68 12 17 24.1 100.20     Mostly Cloudy
11:00 Legend Double Dagger 17.5 10.7 64 13 16 24.1 100.15     LegendNANA
12:00 Legend Double Dagger 19.3 11.1 59 12 17 24.1 100.06     LegendNANA
13:00 Legend Double Dagger 20.6 11.1 54 12 22 24.1 100.00     Mostly Cloudy
14:00 Legend Double Dagger 20.9 11.1 53 13 18 24.1 99.94     LegendNANA
15:00 Legend Double Dagger 20.1 11.2 56 12 22 24.1 99.99     LegendNANA
16:00 Legend Double Dagger 18.9 11.6 62 11 17 24.1 99.98     Mostly Cloudy
17:00 Legend Double Dagger 18.3 11.5 64 10 18 24.1 99.98     LegendNANA
18:00 Legend Double Dagger 17.8 12.8 72 10 15 24.1 100.01     LegendNANA
19:00 Legend Double Dagger 17.2 13.1 76 10 13 24.1 100.04     Cloudy
20:00 Legend Double Dagger 17.0 13.2 78 9 17 24.1 100.05     LegendNANA
21:00 Legend Double Dagger 16.9 13.0 78 8 17 24.1 100.05     LegendNANA
22:00 Legend Double Dagger 17.2 13.0 76 9 15 24.1 100.05     Cloudy
23:00 Legend Double Dagger 17.7 13.0 74 10 13 24.1 100.05     LegendNANA

Notes on Data Quality.

Legend

  • E = Estimated
  • M = Missing
  • NA = Not Available
  • ‡ = Partner data that is not subject to review by the National Climate Archives
Date modified: